Location: Kitchener-Waterloo
(43.4500°N, 80.5000°W)
Time: 09:35:32
(UTC-05:00)

Daily predictions for brighter satellites

Satellite Brightness Start Highest point End
(mag) Time Altitude Azimuth Time Altitude Azimuth Time Altitude Azimuth
CZ-2C R/B 3.7 17:10:30 10° NNE 17:15:00 80° ESE 17:19:30 10° S
Cosmos 2082 Rocket 2.6 17:10:43 10° NNW 17:16:04 41° ENE 17:21:24 10° SE
USA 234 3.8 17:10:10 10° ENE 17:16:23 45° SE 17:22:34 10° SSW
Meteor 2-19 Rocket 4.5 17:11:38 10° N 17:17:44 86° E 17:23:48 10° S
CRYOSAT 2 4.5 17:13:13 10° NNE 17:18:05 59° E 17:22:53 10° S
YAOGAN 1 3.1 17:16:03 10° SE 17:20:02 37° ENE 17:24:03 10° N
PAYLOAD A 3.9 17:16:35 10° SSE 17:21:26 71° ENE 17:26:31 10° N
Cosmos 1500 3.6 17:20:14 10° N 17:23:54 40° ENE 17:27:32 10° SSE
Cosmos 1743 3.9 17:23:13 10° NNE 17:26:18 22° ENE 17:29:20 10° SE
CZ-2C R/B 2.6 17:22:35 10° SSE 17:27:30 55° ENE 17:32:33 10° N
NOSS 3-4 (A) 4.2 17:22:07 10° NNW 17:28:34 39° NE 17:35:23 10° ESE
NOSS 3-4 (C) 4.2 17:22:14 10° NNW 17:28:40 39° NE 17:35:28 10° ESE
IRS-1A Rocket 4.4 17:23:32 10° SSE 17:29:01 80° WSW 17:34:36 10° NNW
Nadezhda 3 Rocket 4.5 17:24:27 10° SSE 17:30:09 39° E 17:35:55 10° NNE
Cosmos 1455 Rocket 3.3 17:30:37 10° NNW 17:35:03 76° W 17:39:29 10° S
NOSS 3-3 (A) 4.2 17:30:02 10° SW 17:36:14 80° NW 17:43:00 10° NE
NOSS 3-3 (C) 4.2 17:30:08 10° SW 17:36:20 81° NW 17:43:06 10° NE
SL-8 R/B 3.9 17:34:55 10° W 17:39:39 61° NNW 17:43:47 14° ENE
EP 1 4.1 17:40:35 10° SSW 17:43:10 83° SE 17:45:16 15° NE
ATLAS 2AS CENTAUR R/B 4.3 17:35:54 10° NW 17:43:23 44° WSW 17:50:23 10° S
Cosmos 1484 Rocket 3.5 17:42:48 10° SE 17:46:01 28° ENE 17:49:15 10° N
ERBS 4.3 17:44:35 10° NNW 17:46:27 14° NNE 17:47:17 13° NE
Cosmos 1809 Rocket 4.4 17:42:48 10° N 17:48:58 70° E 17:55:03 10° SSE
Cosmos 1844 Rocket 4.3 17:44:31 10° WSW 17:49:24 30° NW 17:54:20 10° N
SJ-7 4.4 17:45:52 10° SSE 17:50:05 76° ENE 17:54:21 10° N
SMAP 3.0 17:47:28 10° SSE 17:52:07 89° ENE 17:56:49 10° NNW
BREEZE-M R/B 4.4 17:42:56 10° WSW 17:54:53 81° NNW 17:59:07 17° ENE
TIMED 4.4 17:50:39 10° SSW 17:55:00 75° ESE 17:59:23 10° NNE
Cosmos 2369 Rocket 4.1 17:54:32 10° ESE 17:54:58 10° ESE 17:54:58 10° ESE
CORIOLIS 4.1 17:50:47 10° SSE 17:56:12 86° ENE 18:01:37 10° NNW
Cosmos 1975 3.3 17:52:15 10° NNW 17:56:17 63° W 18:00:15 10° S
SL-24 DEB 4.2 17:51:48 10° N 17:56:30 65° E 18:01:08 10° S
Meteor 1-13 Rocket 4.2 17:57:46 10° S 18:03:25 68° E 18:09:15 10° NNE
Meteor 2-4 Rocket 4.1 17:59:05 10° SSE 18:03:59 38° E 18:08:55 10° NNE
Okean 1-7 Rocket 3.6 17:59:58 10° S 18:04:23 58° E 18:08:46 10° NNE
Cosmos 1812 4.4 18:00:58 10° SW 18:04:30 34° WNW 18:08:04 10° N
Cosmos 1371 Rocket 4.3 17:59:23 10° S 18:04:30 48° ESE 18:08:53 14° NE
CZ-4 R/B 4.4 18:02:32 10° SSE 18:06:42 90° N 18:10:53 10° NNW
Tiangong 1 1.0 18:05:05 10° W 18:08:07 75° S 18:09:19 33° E
CZ-4 R/B 2.7 18:04:09 10° S 18:08:07 44° W 18:12:04 10° NNW
ISS -1.5 18:07:36 10° NW 18:10:05 19° N 18:10:48 18° NNE
Cosmos 1934 Rocket 4.2 18:05:41 10° N 18:11:40 47° ENE 18:17:42 10° SSE
COSMOS 2487 4.3 18:08:49 10° NW 18:12:07 34° WSW 18:15:23 10° S
SPOT 3 Rocket 4.2 18:07:26 10° S 18:12:33 59° WSW 18:17:39 10° NNW
MSX 3.8 18:07:12 10° SSE 18:12:57 90° WSW 18:18:45 10° NNW
BREEZE-M DEB (TANK) 4.2 18:07:25 10° WNW 18:14:12 39° N 18:15:37 27° NE
Cosmos 1535 Rocket 4.4 18:15:42 10° N 18:22:00 70° E 18:28:10 10° SSE
Cosmos 1606 Rocket 3.8 18:18:30 10° N 18:22:51 48° ENE 18:27:11 10° SSE
NOSS 7 (E) 4.2 18:23:42 10° SSW 18:27:08 74° SE 18:27:49 51° NE
NOSS 2-1 (D) 3.5 18:23:19 10° SW 18:27:09 71° NW 18:29:24 27° NNE
Cosmos 2297 4.1 18:21:47 10° SW 18:27:21 62° WNW 18:32:40 11° NNE
NOSS 2-1 (C) 3.5 18:23:59 10° SW 18:27:50 72° NW 18:30:04 27° NNE
METEOR-M 4.5 18:23:10 10° SE 18:28:07 40° ENE 18:33:05 10° N
COSMO-SKYMED 1 2.4 18:28:03 16° NNE 18:31:29 78° ESE 18:35:50 10° S
Cosmos 2239 Rocket 4.4 18:27:35 10° N 18:33:50 88° E 18:39:59 10° S
Cosmos 1190 Rocket 3.9 18:28:54 10° NNW 18:34:07 64° ENE 18:39:17 10° SSE
Cosmos 2278 Rocket 3.9 18:31:13 10° WSW 18:36:02 28° NW 18:40:54 10° N
GEOS 3 Rocket 3.9 18:36:10 36° E 18:37:26 43° NE 18:42:17 10° NNW
Cosmos 921 Rocket 3.9 18:33:41 10° SW 18:37:49 48° WNW 18:41:33 13° N
Cosmos 1666 2.6 18:34:17 10° N 18:38:11 83° E 18:42:03 10° S
NOSS 7 (D) 4.2 18:34:58 10° SW 18:38:25 89° SSE 18:38:44 73° NE
Cosmos 1025 Rocket 2.9 18:34:54 10° S 18:39:17 89° E 18:42:27 19° N
IDEFIX/ARIANE 42P 4.4 18:39:33 10° SSW 18:44:08 31° W 18:48:45 10° NNW
BREEZE-M DEB (TANK) 3.8 18:43:57 10° WNW 18:45:01 20° NNW 18:45:01 20° NNW
Cosmos 1821 Rocket 4.0 18:40:19 10° N 18:46:26 78° W 18:52:30 10° S
NOSS 2-1 (E) 4.0 18:42:46 10° SW 18:46:36 52° NW 18:48:16 33° N
Cosmos 1833 Rocket 3.9 18:45:23 10° NW 18:50:42 43° WSW 18:55:58 10° S
Cosmos 1605 Rocket 3.8 18:50:57 10° N 18:57:15 73° E 19:03:25 10° SSE
Cosmos 2058 Rocket 4.2 18:54:17 10° N 19:02:42 13° SSE 19:03:11 10° SSE
USA 234 3.6 18:56:14 30° NE 18:59:32 61° NNW 19:05:55 10° WSW
CZ-3B DEB 3.6 18:54:35 10° W 18:59:33 44° N 19:04:31 27° NE
Cosmos 2082 Rocket 4.0 18:55:03 10° NW 18:59:59 31° WSW 19:04:56 10° SSW
Meteor 1-28 Rocket 3.6 19:06:28 61° WSW 19:06:28 61° WSW 19:09:48 10° SSW
BREEZE M DEB (TANK) 3.0 19:08:08 10° WSW 19:13:17 53° WNW 19:13:17 53° WNW
NOSS 3-4 (A) 4.4 19:12:57 10° NW 19:19:48 56° WSW 19:27:03 10° SSE
NOSS 3-4 (C) 4.4 19:13:02 10° NW 19:19:54 56° WSW 19:27:09 10° SSE
Cosmos 407 Rocket 4.0 19:19:14 10° NNW 19:24:15 56° WSW 19:29:18 10° S
BREEZE M DEB (TANK) 3.9 19:25:30 10° WNW 19:29:52 77° SSW 19:34:22 37° SE
Cosmos 676 Rocket 4.3 19:30:38 10° NNW 19:35:31 61° W 19:35:31 61° W
Cosmos 1727 Rocket 4.0 19:30:38 10° SSW 19:36:50 76° W 19:38:31 50° N
Cosmos 2369 Rocket 2.9 19:33:06 10° SSW 19:36:50 43° SSW 19:36:50 43° SSW
FALCON 9 R/B 3.6 19:30:37 10° W 19:47:42 46° SSW 19:49:06 42° S
